GW1826 Weather Reports


Display with metric or nautical units.
time (UTC)temp
F
wind
direction
speed
MPH
gust
MPH
rain 1hr
in
rain 24hr
in
rain mn
in
humidity
%
barometer
mb
20260504150504 56 20 0.0 0.0 0.00 0.00 0.00 79 1010.4
20260504141011 51 17 0.0 0.0 0.00 0.00 0.00 90 1010.3
20260504140504 50 17 0.0 0.0 0.00 0.00 0.00 91 1010.3
20260504130503 49 17 0.0 0.0 0.00 0.00 0.00 91 1009.7
20260504110503 50 17 0.0 0.0 0.00 0.00 0.00 89 1009.7
20260504100503 50 5 0.0 0.0 0.00 0.00 0.00 89 1009.5
20260504081515 52 5 0.0 0.0 0.00 0.00 0.00 86 1009.4
20260504081004 53 5 0.0 0.0 0.00 0.00 0.00 86 1009.4
20260504080507 53 5 0.0 0.0 0.00 0.00 0.00 86 1009.4
20260504050508 56 24 0.0 1.0 0.00 0.00 0.00 81 1009.6
20260504050015 56 24 0.0 1.0 0.00 0.00 0.00 81 1009.6
20260504045504 57 24 0.0 2.0 0.00 0.00 0.00 81 1009.7
20260504045007 57 24 0.0 2.0 0.00 0.00 0.00 80 1009.7
20260504044516 57 24 0.0 1.0 0.00 0.00 0.00 79 1009.7
20260504044003 57 24 0.0 3.0 0.00 0.00 0.00 78 1009.7
20260504043508 57 47 1.0 3.0 0.00 0.00 0.00 79 1009.7
20260504043019 57 278 0.0 2.0 0.00 0.00 0.00 78 1009.7
20260504042507 58 182 0.0 1.0 0.00 0.00 0.00 77 1009.7
20260504042008 58 182 0.0 1.0 0.00 0.00 0.00 77 1009.6
20260504041516 58 182 0.0 1.0 0.00 0.00 0.00 76 1009.6
20260504041007 58 182 0.0 1.0 0.00 0.00 0.00 77 1009.6
20260504040504 59 182 0.0 1.0 0.00 0.00 0.00 77 1009.6
20260504040017 59 182 0.0 1.0 0.00 0.00 0.00 77 1009.6
20260504035510 59 182 0.0 1.0 0.00 0.00 0.00 76 1009.6
20260504035007 59 182 0.0 1.0 0.00 0.00 0.00 75 1009.6
20260504034516 60 182 0.0 1.0 0.00 0.00 0.00 74 1009.6
20260504034011 60 182 0.0 0.0 0.00 0.00 0.00 74 1009.6
20260504033507 61 182 0.0 0.0 0.00 0.00 0.00 73 1009.7
20260504033016 61 182 0.0 1.0 0.00 0.00 0.00 71 1009.7
20260504032508 62 182 0.0 1.0 0.00 0.00 0.00 70 1009.7
20260504032012 62 182 0.0 1.0 0.00 0.00 0.00 69 1009.7
20260504031518 63 182 0.0 1.0 0.00 0.00 0.00 68 1009.7
20260504031008 63 182 0.0 1.0 0.00 0.00 0.00 67 1009.7
20260504030509 64 182 0.0 2.0 0.00 0.00 0.00 65 1009.7
20260504030015 64 182 0.0 2.0 0.00 0.00 0.00 65 1009.6
20260504025508 65 182 0.0 2.0 0.00 0.00 0.00 65 1009.7
20260504025007 65 182 0.0 2.0 0.00 0.00 0.00 64 1009.7
20260504024522 66 182 0.0 2.0 0.00 0.00 0.00 64 1009.7
20260504024007 66 221 0.0 3.0 0.00 0.00 0.00 63 1009.7
20260504023508 66 221 1.0 3.0 0.00 0.00 0.00 62 1009.6
20260504023022 67 221 1.0 4.0 0.00 0.00 0.00 60 1009.7
20260504022509 67 200 1.0 4.0 0.00 0.00 0.00 61 1009.6
20260504022009 68 169 1.0 4.0 0.00 0.00 0.00 61 1009.7
20260504021522 68 182 0.0 4.0 0.00 0.00 0.00 59 1009.8
20260504021007 68 182 1.0 4.0 0.00 0.00 0.00 59 1009.8
20260504020508 68 204 0.0 4.0 0.00 0.00 0.00 59 1009.9
20260504020016 68 205 1.0 3.0 0.00 0.00 0.00 58 1010.0
20260504015503 68 205 0.0 4.0 0.00 0.00 0.00 57 1010.1
20260504015005 68 205 1.0 4.0 0.00 0.00 0.00 58 1010.1
20260504014504 68 212 1.0 5.0 0.00 0.00 0.00 58 1010.2
20260504014003 69 179 2.0 5.0 0.00 0.00 0.00 57 1010.2
20260504013503 69 244 1.0 5.0 0.00 0.00 0.00 57 1010.2
20260504013009 70 215 1.0 5.0 0.00 0.00 0.00 56 1010.2
20260504012504 71 160 1.0 5.0 0.00 0.00 0.00 56 1010.3
20260504012003 72 182 2.0 5.0 0.00 0.00 0.00 56 1010.3
20260504011508 72 217 1.0 6.0 0.00 0.00 0.00 54 1010.3
20260504011004 72 179 2.0 6.0 0.00 0.00 0.00 55 1010.3
20260504010507 73 219 1.0 5.0 0.00 0.00 0.00 54 1010.4
20260504010004 73 199 0.0 4.0 0.00 0.00 0.00 55 1010.4
20260504005504 73 212 1.0 4.0 0.00 0.00 0.00 54 1010.5
20260504005004 73 198 1.0 4.0 0.00 0.00 0.00 57 1010.6
20260504004502 72 161 0.0 6.0 0.00 0.00 0.00 56 1010.6
20260504004003 72 182 2.0 8.0 0.00 0.00 0.00 59 1010.7
20260504003503 72 194 3.0 8.0 0.00 0.00 0.00 55 1010.7
20260504003010 71 169 3.0 6.0 0.00 0.00 0.00 60 1010.7
20260504002504 72 150 3.0 7.0 0.00 0.00 0.00 59 1010.7
20260504002004 72 140 2.0 7.0 0.00 0.00 0.00 57 1010.7
20260504001515 74 192 1.0 4.0 0.00 0.00 0.00 55 1010.8
20260504001008 74 144 1.0 7.0 0.00 0.00 0.00 55 1010.8
20260504000503 74 112 3.0 7.0 0.00 0.00 0.00 57 1010.8
20260504000042 73 101 2.0 7.0 0.00 0.00 0.00 60 1010.8
20260503235502 73 124 5.0 7.0 0.00 0.00 0.00 57 1011.0
20260503235002 74 116 3.0 9.0 0.00 0.00 0.00 56 1011.0
20260503234503 73 204 2.0 9.0 0.00 0.00 0.00 56 1011.1
20260503234003 74 109 6.0 9.0 0.00 0.00 0.00 57 1011.1
20260503233502 75 123 4.0 8.0 0.00 0.00 0.00 58 1011.2
20260503233008 76 136 2.0 7.0 0.00 0.00 0.00 52 1011.1
20260503232504 77 236 2.0 8.0 0.00 0.00 0.00 46 1011.2
20260503232007 77 302 1.0 8.0 0.00 0.00 0.00 49 1011.2
20260503231503 77 321 2.0 8.0 0.00 0.00 0.00 46 1011.4
20260503231004 76 282 4.0 8.0 0.00 0.00 0.00 46 1011.4
20260503230507 76 307 4.0 8.0 0.00 0.00 0.00 48 1011.5
20260503230015 77 251 2.0 8.0 0.00 0.00 0.00 48 1011.5
20260503225504 77 157 2.0 8.0 0.00 0.00 0.00 48 1011.5
20260503225004 77 275 0.0 8.0 0.00 0.00 0.00 47 1011.6
20260503224508 77 313 2.0 8.0 0.00 0.00 0.00 44 1011.8
20260503224004 76 280 4.0 7.0 0.00 0.00 0.00 45 1011.7
20260503223502 77 273 3.0 7.0 0.00 0.00 0.00 46 1011.8
20260503223012 76 225 3.0 8.0 0.00 0.00 0.00 42 1011.9
20260503222503 76 299 4.0 8.0 0.00 0.00 0.00 47 1012.0
20260503222003 76 203 2.0 8.0 0.00 0.00 0.00 46 1012.0
20260503221514 76 276 4.0 8.0 0.00 0.00 0.00 45 1012.0
20260503221003 76 256 1.0 8.0 0.00 0.00 0.00 47 1012.0
20260503220504 76 298 2.0 9.0 0.00 0.00 0.00 44 1012.1
20260503220011 75 253 4.0 9.0 0.00 0.00 0.00 45 1012.2
20260503215502 75 274 3.0 8.0 0.00 0.00 0.00 47 1012.3
20260503215003 75 284 4.0 10.0 0.00 0.00 0.00 47 1012.4
20260503214507 75 309 5.0 10.0 0.00 0.00 0.00 45 1012.5
20260503214008 75 319 3.0 10.0 0.00 0.00 0.00 48 1012.4
20260503213504 75 261 3.0 10.0 0.00 0.00 0.00 45 1012.5
20260503213015 74 193 5.0 10.0 0.00 0.00 0.00 45 1012.5
20260503212504 75 266 4.0 10.0 0.00 0.00 0.00 48 1012.5
20260503212008 75 247 5.0 12.0 0.00 0.00 0.00 46 1012.6
20260503211516 75 271 3.0 12.0 0.00 0.00 0.00 45 1012.6
20260503211003 74 238 3.0 8.0 0.00 0.00 0.00 48 1012.6
20260503210511 75 280 2.0 8.0 0.00 0.00 0.00 48 1012.7
20260503210004 74 230 3.0 9.0 0.00 0.00 0.00 44 1012.8
20260503205506 74 265 5.0 10.0 0.00 0.00 0.00 42 1012.8
20260503205007 75 257 3.0 10.0 0.00 0.00 0.00 47 1012.8
20260503204511 74 300 4.0 11.0 0.00 0.00 0.00 43 1012.9
20260503204005 74 298 2.0 11.0 0.00 0.00 0.00 45 1013.1
20260503203504 73 287 5.0 10.0 0.00 0.00 0.00 43 1013.2
20260503203025 73 288 5.0 11.0 0.00 0.00 0.00 45 1013.3
20260503202504 72 274 4.0 11.0 0.00 0.00 0.00 46 1013.4
20260503202009 73 272 4.0 8.0 0.00 0.00 0.00 45 1013.5
20260503201511 72 306 3.0 11.0 0.00 0.00 0.00 49 1013.6
20260503201007 72 267 5.0 11.0 0.00 0.00 0.00 49 1013.6
20260503200509 72 271 5.0 12.0 0.00 0.00 0.00 50 1013.6
20260503200008 72 336 5.0 12.0 0.00 0.00 0.00 49 1013.7
20260503195503 71 305 5.0 11.0 0.00 0.00 0.00 54 1013.7
20260503195005 71 318 6.0 11.0 0.00 0.00 0.00 53 1013.6
20260503194515 71 296 5.0 13.0 0.00 0.00 0.00 55 1013.7
20260503194005 71 269 6.0 13.0 0.00 0.00 0.00 56 1013.6
20260503193510 71 248 3.0 11.0 0.00 0.00 0.00 57 1013.6
20260503193018 71 258 6.0 11.0 0.00 0.00 0.00 54 1013.6
20260503192503 72 246 3.0 8.0 0.00 0.00 0.00 59 1013.6
20260503192007 72 263 3.0 10.0 0.00 0.00 0.00 60 1013.6
20260503191515 71 325 2.0 10.0 0.00 0.00 0.00 60 1013.5
20260503191008 71 258 4.0 10.0 0.00 0.00 0.00 58 1013.5
20260503190507 71 289 5.0 10.0 0.00 0.00 0.00 56 1013.6
20260503190009 72 186 1.0 9.0 0.00 0.00 0.00 55 1013.5
20260503185507 72 94 3.0 7.0 0.00 0.00 0.00 59 1013.6
20260503185003 72 248 3.0 10.0 0.00 0.00 0.00 56 1013.7
20260503184513 71 170 3.0 10.0 0.00 0.00 0.00 61 1013.8
20260503184007 72 192 3.0 9.0 0.00 0.00 0.00 60 1014.0
20260503183507 71 208 2.0 9.0 0.00 0.00 0.00 62 1014.0
20260503183012 71 190 3.0 7.0 0.00 0.00 0.00 60 1014.0
20260503182508 70 181 1.0 6.0 0.00 0.00 0.00 62 1014.1
20260503182010 70 172 2.0 6.0 0.00 0.00 0.00 60 1014.1
20260503181517 70 157 2.0 6.0 0.00 0.00 0.00 62 1014.2
20260503181007 69 226 2.0 8.0 0.00 0.00 0.00 63 1014.3
20260503180508 69 123 2.0 8.0 0.00 0.00 0.00 67 1014.3
20260503180022 68 202 2.0 7.0 0.00 0.00 0.00 70 1014.4
20260503175504 68 122 2.0 7.0 0.00 0.00 0.00 65 1014.5
20260503175007 68 190 2.0 5.0 0.00 0.00 0.00 65 1014.6
20260503174518 68 143 2.0 6.0 0.00 0.00 0.00 65 1014.5
20260503174010 69 182 1.0 6.0 0.00 0.00 0.00 64 1014.6
20260503173503 68 227 1.0 5.0 0.00 0.00 0.00 63 1014.7
20260503173033 68 188 1.0 5.0 0.00 0.00 0.00 64 1014.6
20260503172507 69 213 0.0 5.0 0.00 0.00 0.00 57 1014.7
20260503172004 69 338 2.0 6.0 0.00 0.00 0.00 56 1014.7
20260503171516 68 348 1.0 6.0 0.00 0.00 0.00 55 1014.7
20260503171006 68 338 0.0 4.0 0.00 0.00 0.00 56 1014.8
20260503170506 67 169 0.0 4.0 0.00 0.00 0.00 56 1014.9
20260503151005 55 292 0.0 0.0 0.00 0.00 0.00 85 1015.2